Home   Weather   Horsham   Past weeks

Flag for United Kingdom Past Weather in Horsham, England, United Kingdom — Yesterday and Last 2 Weeks

50 °F


Feels Like: 49 °F
Forecast: 41 / 60 °F
Wind: 3 mph from Southwest

Location: London / Gatwick Airport

Current Time: Oct 27, 2016 at 12:09:08 AM

Latest Report: Oct 26, 2016 at 11:20 PM

Visibility: 3 mi

Pressure: 30.45 "Hg

Humidity: 100%

Dew Point: 50 °F

Location of HorshamLocation

Past Weather in Horsham — Graph


Horsham Temperature Yesterday

Maximum temperature yesterday: 59 °F (at 11:20 AM)
Minimum temperature yesterday: 46 °F (at 1:50 AM)
Average temperature yesterday: 54 °F

High & Low Weather Summary for the Past Weeks

High61 °F (Oct 15, 12:50 PM)100% (Oct 11, 10:50 PM)30.45 "Hg (Oct 11, 10:50 PM)
Low36 °F (Oct 23, 5:20 AM)58% (Oct 18, 4:50 PM)29.65 "Hg (Oct 14, 2:20 PM)
Average51 °F85%30.01 "Hg
* Reported Oct 11 10:20 PM — Oct 26 10:50 PM, Horsham, Weather by CustomWeather, © 2016

Note: Actual official high and low records may vary slightly from our data, if they occured in-between our weather recording intervals... More about our weather records


Horsham Weather History for the Previous 24 Hours

Scroll right to see more
Time TempWeatherWind HumidityBarometerVisibility
10:50 PM
Wed, Oct 26
50 °FClear.No wind100%30.45 "Hg4 mi
10:20 PM50 °FClear.3 mph100%30.45 "Hg4 mi
9:50 PM50 °FClear.3 mph100%30.45 "Hg4 mi
9:20 PM52 °FClear.5 mph94%30.42 "Hg10 mi
8:50 PM52 °FPassing clouds.6 mph94%30.42 "HgN/A
8:20 PM54 °FPartly cloudy.3 mph88%30.42 "HgN/A
7:50 PM54 °FPassing clouds.5 mph88%30.42 "HgN/A
7:20 PM54 °FPassing clouds.5 mph88%30.42 "HgN/A
6:50 PM55 °FPassing clouds.6 mph88%30.39 "HgN/A
6:20 PM57 °FPassing clouds.5 mph82%30.39 "HgN/A
5:50 PM57 °FPassing clouds.6 mph82%30.39 "HgN/A
5:20 PM57 °FScattered clouds.5 mph82%30.39 "HgN/A
4:50 PM59 °FScattered clouds.8 mph77%30.36 "HgN/A
4:20 PM59 °FPassing clouds.7 mph77%30.36 "HgN/A
3:50 PM59 °FPassing clouds.8 mph77%30.36 "HgN/A
3:20 PM59 °FPassing clouds.10 mph72%30.36 "HgN/A
2:50 PM59 °FPassing clouds.9 mph77%30.36 "HgN/A
2:20 PM59 °FScattered clouds.10 mph77%30.36 "HgN/A
1:50 PM59 °FScattered clouds.10 mph77%30.39 "HgN/A
1:20 PM59 °FPartly sunny.12 mph77%30.39 "HgN/A
12:50 PM59 °FPartly sunny.8 mph77%30.39 "HgN/A
12:20 PM59 °FScattered clouds.9 mph77%30.39 "HgN/A
11:50 AM59 °FScattered clouds.10 mph77%30.39 "HgN/A
11:20 AM59 °FScattered clouds.7 mph82%30.36 "HgN/A
10:50 AM57 °FPassing clouds.7 mph88%30.36 "HgN/A
10:20 AM55 °FPassing clouds.7 mph94%30.36 "Hg6 mi
9:50 AM54 °FScattered clouds.5 mph100%30.36 "Hg4 mi
9:20 AM54 °FFog.3 mph94%30.36 "Hg3 mi
8:50 AM52 °FFog.2 mph100%30.36 "Hg1 mi
8:20 AM52 °FFog.2 mph100%30.36 "Hg1 mi
7:50 AM52 °FFog.3 mph94%30.33 "Hg3 mi
7:20 AM52 °FFog.2 mph94%30.33 "Hg3 mi
6:50 AM54 °FFog.2 mph94%30.33 "Hg3 mi
6:20 AM52 °FFog.2 mph100%30.33 "Hg2 mi
5:50 AM52 °FFog.No wind100%30.33 "Hg1 mi
5:20 AM52 °FFog.No wind100%30.30 "Hg1 mi
4:50 AM52 °FFog.No wind100%30.30 "Hg1 mi
4:20 AM52 °FFog.No wind100%30.30 "Hg1 mi
3:50 AM50 °FFog.2 mph100%30.33 "Hg1 mi
3:20 AM50 °FFog.No wind100%30.33 "Hg1 mi
2:50 AM50 °FFog.No wind100%30.33 "Hg1 mi
2:20 AM48 °FFog.5 mph100%30.30 "Hg1 mi
1:50 AM46 °FFog.2 mph100%30.30 "Hg1 mi
1:20 AM48 °FFog.2 mph100%30.30 "Hg1 mi
12:50 AM50 °FFog.No wind94%30.30 "Hg1 mi
12:20 AM50 °FFog.2 mph94%30.30 "Hg1 mi
Weather by CustomWeather, © 2016

See weather overviewHow to use our weather pages